Tiempo cada hora Muravschina

Hoy, 22 Octubre, Jueves

Tiempo Temperatura Precipitaciones Viento Presión Humedad
00:00 +5°C° 0 mm 2 mps 742 mmHg 96%
01:00 +5°C° 0 mm 2 mps 742 mmHg 96%
02:00 +4°C° 0 mm 2 mps 742 mmHg 95%
03:00 +4°C° 0 mm 2 mps 742 mmHg 95%
04:00 +4°C° 0 mm 2 mps 742 mmHg 96%
05:00 +4°C° 0 mm 2 mps 741 mmHg 96%
06:00 +3°C° 0 mm 3 mps 741 mmHg 94%
07:00 +4°C° 0 mm 4 mps 741 mmHg 92%
08:00 +4°C° 0 mm 4 mps 740 mmHg 90%
09:00 +3°C° 0.4 mm 5 mps 740 mmHg 91%
10:00 +5°C° 0.4 mm 5 mps 740 mmHg 92%
11:00 +5°C° 0.4 mm 5 mps 740 mmHg 93%
12:00 +6°C° 0.3 mm 5 mps 739 mmHg 92%
13:00 +7°C° 0.3 mm 5 mps 739 mmHg 90%
14:00 +7°C° 0.3 mm 6 mps 738 mmHg 88%
15:00 +7°C° 0 mm 6 mps 738 mmHg 88%
16:00 +7°C° 0 mm 5 mps 737 mmHg 88%
17:00 +7°C° 0 mm 5 mps 737 mmHg 88%
18:00 +8°C° 0 mm 5 mps 737 mmHg 89%
19:00 +8°C° 0 mm 5 mps 737 mmHg 89%
20:00 +8°C° 0 mm 5 mps 736 mmHg 90%
21:00 +9°C° 0 mm 6 mps 736 mmHg 89%
22:00 +9°C° 0 mm 6 mps 736 mmHg 88%
23:00 +10°C° 0 mm 7 mps 736 mmHg 88%

Mañana, 23 Octubre, Viernes

Tiempo Temperatura Precipitaciones Viento Presión Humedad
00:00 +10°C° 0 mm 7 mps 737 mmHg 87%
01:00 +10°C° 0 mm 7 mps 737 mmHg 86%
02:00 +10°C° 0 mm 7 mps 738 mmHg 85%
03:00 +10°C° 0 mm 6 mps 738 mmHg 88%
04:00 +9°C° 0 mm 6 mps 738 mmHg 90%
05:00 +9°C° 0 mm 5 mps 738 mmHg 92%
06:00 +9°C° 0 mm 5 mps 738 mmHg 92%
07:00 +9°C° 0 mm 5 mps 738 mmHg 92%
08:00 +9°C° 0 mm 5 mps 738 mmHg 92%
09:00 +10°C° 0 mm 5 mps 738 mmHg 90%
10:00 +10°C° 0 mm 5 mps 738 mmHg 88%
11:00 +12°C° 0 mm 5 mps 737 mmHg 85%
12:00 +11°C° 0.1 mm 6 mps 737 mmHg 85%
13:00 +11°C° 0.1 mm 6 mps 736 mmHg 85%
14:00 +11°C° 0.1 mm 7 mps 736 mmHg 85%
15:00 +11°C° 1.3 mm 6 mps 736 mmHg 87%
16:00 +11°C° 1.3 mm 6 mps 735 mmHg 89%
17:00 +11°C° 1.3 mm 6 mps 735 mmHg 91%
18:00 +10°C° 0.1 mm 6 mps 735 mmHg 92%
19:00 +10°C° 0.1 mm 5 mps 735 mmHg 92%
20:00 +10°C° 0.1 mm 5 mps 736 mmHg 92%
21:00 +9°C° 0 mm 5 mps 736 mmHg 92%
22:00 +9°C° 0 mm 5 mps 736 mmHg 92%
23:00 +9°C° 0 mm 5 mps 736 mmHg 92%

Pasado mañana, 24 Octubre, Sábado

Tiempo Temperatura Precipitaciones Viento Presión Humedad
00:00 +8°C° 0 mm 4 mps 736 mmHg 93%
01:00 +8°C° 0 mm 4 mps 737 mmHg 94%
02:00 +7°C° 0 mm 4 mps 737 mmHg 94%
03:00 +8°C° 0 mm 3 mps 737 mmHg 95%
04:00 +7°C° 0 mm 3 mps 737 mmHg 96%
05:00 +7°C° 0 mm 3 mps 737 mmHg 96%
06:00 +7°C° 0 mm 3 mps 737 mmHg 95%
07:00 +7°C° 0 mm 3 mps 738 mmHg 95%
08:00 +7°C° 0 mm 3 mps 738 mmHg 94%
09:00 +8°C° 0 mm 2 mps 738 mmHg 91%
10:00 +8°C° 0 mm 2 mps 738 mmHg 89%
11:00 +9°C° 0 mm 2 mps 738 mmHg 86%
12:00 +9°C° 0 mm 2 mps 738 mmHg 85%
13:00 +10°C° 0 mm 3 mps 738 mmHg 83%
14:00 +10°C° 0 mm 3 mps 738 mmHg 82%
15:00 +9°C° 0 mm 3 mps 738 mmHg 84%
16:00 +9°C° 0 mm 2 mps 738 mmHg 86%
17:00 +8°C° 0 mm 2 mps 738 mmHg 88%
18:00 +8°C° 0.1 mm 2 mps 738 mmHg 89%
19:00 +9°C° 0.1 mm 1 mps 738 mmHg 91%
20:00 +9°C° 0.1 mm 1 mps 738 mmHg 92%
21:00 +9°C° 0.3 mm 1 mps 738 mmHg 93%
22:00 +9°C° 0.3 mm 1 mps 738 mmHg 95%
23:00 +8°C° 0.3 mm 2 mps 738 mmHg 96%

, 25 Octubre, Domingo

Tiempo Temperatura Precipitaciones Viento Presión Humedad
00:00 +7°C° 0.1 mm 2 mps 738 mmHg 96%
01:00 +7°C° 0.1 mm 3 mps 738 mmHg 95%
02:00 +7°C° 0.1 mm 3 mps 738 mmHg 95%
03:00 +7°C° 0.5 mm 3 mps 738 mmHg 94%
04:00 +6°C° 0.5 mm 4 mps 738 mmHg 93%
05:00 +7°C° 0.5 mm 4 mps 739 mmHg 92%
06:00 +7°C° 0 mm 4 mps 739 mmHg 91%
07:00 +7°C° 0 mm 4 mps 739 mmHg 90%
08:00 +7°C° 0 mm 5 mps 739 mmHg 89%
09:00 +8°C° 0 mm 5 mps 740 mmHg 85%
10:00 +8°C° 0 mm 5 mps 741 mmHg 81%
11:00 +8°C° 0 mm 5 mps 741 mmHg 77%
12:00 +8°C° 0 mm 5 mps 742 mmHg 77%
13:00 +8°C° 0 mm 5 mps 742 mmHg 76%
14:00 +8°C° 0 mm 4 mps 743 mmHg 76%
15:00 +8°C° 0 mm 4 mps 743 mmHg 78%
16:00 +8°C° 0 mm 3 mps 743 mmHg 80%
17:00 +8°C° 0 mm 2 mps 744 mmHg 82%
18:00 +8°C° 0 mm 2 mps 744 mmHg 83%
19:00 +7°C° 0 mm 2 mps 745 mmHg 83%
20:00 +7°C° 0 mm 2 mps 745 mmHg 84%
21:00 +8°C° 0 mm 1 mps 745 mmHg 84%
22:00 +8°C° 0 mm 1 mps 746 mmHg 85%
23:00 +7°C° 0 mm 1 mps 746 mmHg 85%

25 Octubre, Domingo

Tiempo Temperatura Precipitaciones Viento Presión Humedad
00:00 +7°C° 0.1 mm 2 mps 738 mmHg 96%
01:00 +7°C° 0.1 mm 3 mps 738 mmHg 95%
02:00 +7°C° 0.1 mm 3 mps 738 mmHg 95%
03:00 +7°C° 0.5 mm 3 mps 738 mmHg 94%
04:00 +6°C° 0.5 mm 4 mps 738 mmHg 93%
05:00 +7°C° 0.5 mm 4 mps 739 mmHg 92%
06:00 +7°C° 0 mm 4 mps 739 mmHg 91%
07:00 +7°C° 0 mm 4 mps 739 mmHg 90%
08:00 +7°C° 0 mm 5 mps 739 mmHg 89%
09:00 +8°C° 0 mm 5 mps 740 mmHg 85%
10:00 +8°C° 0 mm 5 mps 741 mmHg 81%
11:00 +8°C° 0 mm 5 mps 741 mmHg 77%
12:00 +8°C° 0 mm 5 mps 742 mmHg 77%
13:00 +8°C° 0 mm 5 mps 742 mmHg 76%
14:00 +8°C° 0 mm 4 mps 743 mmHg 76%
15:00 +8°C° 0 mm 4 mps 743 mmHg 78%
16:00 +8°C° 0 mm 3 mps 743 mmHg 80%
17:00 +8°C° 0 mm 2 mps 744 mmHg 82%
18:00 +8°C° 0 mm 2 mps 744 mmHg 83%
19:00 +7°C° 0 mm 2 mps 745 mmHg 83%
20:00 +7°C° 0 mm 2 mps 745 mmHg 84%
21:00 +8°C° 0 mm 1 mps 745 mmHg 84%
22:00 +8°C° 0 mm 1 mps 746 mmHg 85%
23:00 +7°C° 0 mm 1 mps 746 mmHg 85%

26 Octubre, Lunes

Tiempo Temperatura Precipitaciones Viento Presión Humedad
00:00 +7°C° 0 mm 1 mps 746 mmHg 85%
01:00 +7°C° 0 mm 1 mps 746 mmHg 85%
02:00 +7°C° 0 mm 1 mps 746 mmHg 85%
03:00 +7°C° 0 mm 1 mps 747 mmHg 85%
04:00 +7°C° 0 mm 1 mps 747 mmHg 85%
05:00 +6°C° 0 mm 2 mps 747 mmHg 85%
06:00 +6°C° 0 mm 2 mps 748 mmHg 85%
07:00 +6°C° 0 mm 2 mps 748 mmHg 85%
08:00 +6°C° 0 mm 2 mps 748 mmHg 85%
09:00 +7°C° 0 mm 2 mps 748 mmHg 82%
10:00 +8°C° 0 mm 2 mps 748 mmHg 79%
11:00 +9°C° 0 mm 2 mps 748 mmHg 76%
12:00 +9°C° 0 mm 2 mps 748 mmHg 75%
13:00 +9°C° 0 mm 2 mps 748 mmHg 73%
14:00 +9°C° 0 mm 2 mps 748 mmHg 71%
15:00 +8°C° 0 mm 2 mps 748 mmHg 76%
16:00 +7°C° 0 mm 2 mps 748 mmHg 81%
17:00 +6°C° 0 mm 2 mps 748 mmHg 86%
18:00 +6°C° 0 mm 2 mps 748 mmHg 88%
19:00 +5°C° 0 mm 2 mps 748 mmHg 90%
20:00 +4°C° 0 mm 3 mps 748 mmHg 91%
21:00 +4°C° 0 mm 3 mps 748 mmHg 91%
22:00 +4°C° 0 mm 3 mps 748 mmHg 91%
23:00 +3°C° 0 mm 3 mps 748 mmHg 91%

27 Octubre, Martes

Tiempo Temperatura Precipitaciones Viento Presión Humedad
00:00 +3°C° 0 mm 3 mps 748 mmHg 91%
01:00 +3°C° 0 mm 3 mps 748 mmHg 91%
02:00 +3°C° 0 mm 3 mps 747 mmHg 91%
03:00 +3°C° 0 mm 4 mps 747 mmHg 91%
04:00 +3°C° 0 mm 4 mps 747 mmHg 91%
05:00 +3°C° 0 mm 4 mps 747 mmHg 91%
06:00 +4°C° 0 mm 4 mps 747 mmHg 89%
07:00 +4°C° 0 mm 4 mps 747 mmHg 87%
08:00 +3°C° 0 mm 5 mps 747 mmHg 85%
09:00 +5°C° 0 mm 5 mps 747 mmHg 83%
10:00 +6°C° 0 mm 5 mps 747 mmHg 81%
11:00 +6°C° 0 mm 5 mps 747 mmHg 79%
12:00 +6°C° 0.1 mm 5 mps 747 mmHg 80%
13:00 +6°C° 0.1 mm 5 mps 747 mmHg 82%
14:00 +6°C° 0.1 mm 5 mps 747 mmHg 83%
15:00 +6°C° 0.1 mm 5 mps 746 mmHg 83%
16:00 +6°C° 0.1 mm 5 mps 746 mmHg 83%
17:00 +6°C° 0.1 mm 5 mps 746 mmHg 83%
18:00 +6°C° 0 mm 4 mps 746 mmHg 83%
19:00 +6°C° 0 mm 4 mps 746 mmHg 83%
20:00 +6°C° 0 mm 4 mps 746 mmHg 83%
21:00 +6°C° 0 mm 4 mps 746 mmHg 85%
22:00 +6°C° 0 mm 4 mps 746 mmHg 86%
23:00 +7°C° 0 mm 3 mps 746 mmHg 87%
Mostrar más

Necesitamos Su Consentimiento

Meteoprog y nuestros Proveedores de Servicios pueden almacenar y acceder a sus datos personales como cookies, identificadores de dispositivo u otras tecnologías similares de su dispositivo y procesar dichos datos para personalizar contenido y anuncios, además de ofrecer funciones de redes sociales y analizar el tráfico.

  • Almacenar y/o acceder a información en su dispositivo

    Se puede almacenar o acceder a cookies, identificadores de dispositivo u otra información de su dispositivo para los fines anteriormente indicados.

  • Anuncios y contenido personalizados, medición de anuncios y contenido, percepciones del público, y desarrollo de productos

    Los anuncios y el contenido pueden personalizarse en base a su perfil. Se pueden añadir más datos para personalizar mejor los anuncios y contenidos. Se puede medir el rendimiento de los anuncios y contenidos. Se puede obtener la percepción sobre el público que ha visto los anuncios y contenidos. Dichos datos pueden usarse para desarrollar o mejorar la experiencia del usuario, sistemas y software.

Al hacer clic en ‘Estoy De Acuerdo’ usted permitirá el uso de las cookies, identificadores de dispositivo, balizas web u otras tecnologías similares indicadas. Su configuración puede cambiarse desde el navegador de su dispositivo.

Para ciertos fines, los intereses legítimos pueden ser considerados por encima del consentimiento. Puede leer más sobre ello en nuestra Política de Privacidad y Cookies.